This demonstration page uses our WeatherBlox Daily Observations layout. Learn more.

Left ArrowRight Arrow

36.19886, -115.1175

Hourly Observations for January 25, 2022

Temp ( °F °C ) Dew Point ( °F °C ) Humidity (%) Winds ( mph kmh ) Pressure ( in mb ) Visibility ( mi km ) Precip ( " mm )
12:53 am 00:53 Clear 45 7.2 21 -6.1 39 39 NW 7 11 29.95 1014 10 16 0.00 0.00
1:53 am 01:53 Clear 47 8.3 20 -6.7 34 34 Calm 29.93 1014 10 16 0.00 0.00
2:53 am 02:53 Clear 52 11.1 19 -7.2 27 27 SW 9 15 29.91 1013 10 16 0.00 0.00
3:53 am 03:53 Clear 47 8.3 19 -7.2 33 33 ENE 3 6 29.90 1013 10 16 0.00 0.00
4:53 am 04:53 Clear 43 6.1 18 -7.8 37 37 VRB 6 9 29.93 1014 10 16 0.00 0.00
5:53 am 05:53 Clear 50 10 19 -7.2 29 29 NW 16 26 29.95 1014 10 16 0.00 0.00
6:53 am 06:53 Sunny 48 8.9 19 -7.2 32 32 VRB 3 6 30.02 1017 10 16 0.00 0.00
7:53 am 07:53 Sunny 55 12.8 17 -8.3 22 22 NW 17 28 30.04 1017 10 16 0.00 0.00
8:53 am 08:53 Sunny 59 15 16 -8.9 18 18 NW 21 33 30.06 1018 10 16 0.00 0.00
9:53 am 09:53 Sunny with Light Rain 59 15 15 -9.4 18 18 NW 29 46 30.08 1019 10 16 0.00 0.00
10:53 am 10:53 Sunny 59 15 13 -10.6 16 16 NNW 24 39 30.10 1019 10 16 0.00 0.00
11:53 am 11:53 Sunny 61 16.1 14 -10 16 16 NNW 10 17 30.10 1019 10 16 0.00 0.00
12:35 pm 12:35 Sunny 60 15.6 15 -9.4 17 17 NW 22 35 30.00 1016 10 16 0.00 0.00
12:53 pm 12:53 Sunny 61 16.1 15 -9.4 17 17 NW 25 41 30.08 1019 10 16 0.00 0.00
1:53 pm 13:53 Sunny 61 16.1 16 -8.9 17 17 NNW 18 30 30.07 1018 10 16 0.00 0.00
2:53 pm 14:53 Sunny 61 16.1 16 -8.9 17 17 NW 14 22 30.08 1019 10 16 0.00 0.00
3:53 pm 15:53 Sunny 60 15.6 16 -8.9 18 18 NNW 14 22 30.09 1019 10 16 0.00 0.00
4:53 pm 16:53 Sunny 58 14.4 15 -9.4 18 18 ENE 6 9 30.13 1020 10 16 0.00 0.00
5:53 pm 17:53 Clear 55 12.8 15 -9.4 20 20 ENE 10 17 30.15 1021 10 16 0.00 0.00
6:53 pm 18:53 Clear 54 12.2 15 -9.4 21 21 ESE 6 9 30.17 1022 10 16 0.00 0.00
7:53 pm 19:53 Clear 52 11.1 15 -9.4 23 23 NE 10 17 30.19 1022 10 16 0.00 0.00
8:53 pm 20:53 Clear 52 11.1 16 -8.9 24 24 E 5 7 30.21 1023 10 16 0.00 0.00
9:53 pm 21:53 Clear 49 9.4 16 -8.9 27 27 ENE 8 13 30.23 1024 10 16 0.00 0.00
10:53 pm 22:53 Clear 50 10 16 -8.9 26 26 NNE 9 15 30.24 1024 10 16 0.00 0.00
11:53 pm 23:53 Clear 48 8.9 17 -8.3 29 29 NNE 7 11 30.25 1024 10 16 0.00 0.00

Powered by AerisWeather